Location: Chuathbaluk
(61.5726°N, 159.2454°W)
Time: 11:13:23
(UTC+00:00)

S-56A Canister/Altair - Visible Passes

Search period start: 30 November 2020 00:00
Search period end: 10 December 2020 00:00
Orbit: 633 x 2500 km, 38.9° (Epoch: 29 November)

Date Brightness Start Highest point End Pass type
(mag) Time Alt. Az. Time Alt. Az. Time Alt. Az.
30 Nov 10.9 07:12:15 10° SSW 07:12:58 11° SSW 07:12:58 11° SSW visible
01 Dec 10.7 06:38:52 10° SSW 06:42:07 14° S 06:42:07 14° S visible
02 Dec 10.6 06:05:31 10° SSW 06:11:01 15° S 06:11:14 15° S visible
03 Dec 10.5 05:32:13 10° SSW 05:38:16 16° S 05:40:20 15° SSE visible
03 Dec 10.8 07:35:34 10° SW 07:37:45 13° SSW 07:37:45 13° SSW visible
04 Dec 10.6 04:58:58 10° SSW 05:05:30 16° SSE 05:09:25 13° SE visible
04 Dec 10.6 07:01:58 10° SW 07:06:50 16° SSW 07:06:50 16° SSW visible
05 Dec 10.7 04:25:47 10° SSW 04:32:41 17° SSE 04:38:29 10° SE visible
05 Dec 10.5 06:28:25 10° SW 06:35:19 18° S 06:35:54 18° S visible
06 Dec 10.8 03:52:39 10° SSW 03:59:50 17° SSE 04:05:57 10° SE visible
06 Dec 10.5 05:54:54 10° SW 06:02:34 20° S 06:04:59 18° SSE visible
06 Dec 11.0 08:00:18 10° SW 08:02:24 12° SW 08:02:24 12° SW visible
07 Dec 11.0 03:19:36 10° S 03:26:56 17° SSE 03:33:17 10° SE visible
07 Dec 10.5 05:21:27 10° SW 05:29:45 21° S 05:34:03 16° SSE visible
07 Dec 10.8 07:26:21 10° SW 07:31:29 16° SSW 07:31:29 16° SSW visible
08 Dec 11.1 02:46:39 10° S 02:54:01 16° SSE 03:00:30 10° ESE visible
08 Dec 10.7 04:48:01 10° SW 04:56:53 22° S 05:03:08 13° SE visible
08 Dec 10.6 06:52:33 10° WSW 06:59:27 18° SSW 07:00:33 17° SSW visible
09 Dec 11.2 02:13:50 10° S 02:21:05 16° SSE 02:27:36 10° ESE visible
09 Dec 10.8 04:14:39 10° SW 04:23:58 22° S 04:31:40 10° SE visible
09 Dec 10.6 06:18:50 10° WSW 06:26:41 20° SSW 06:29:40 17° S visible
